Regional Weather Roundup
Issued by NWS

Home | Current Version | Previous Version | Text Only | Print | Product List | Glossary Off
Versions: 1 2 3 4 5 6 7 8 9 10 11 12 13 14 15 16 17 18 19 20 21 22 23 24 25 26 27 28 29 30 31 32 33 34 35 36 37 38 39 40 41 42 43 44 45 46 47 48 49 50

490
ASUS43 KLSX 262359
RWRMO

WEATHER SUMMARY FOR MISSOURI
NATIONAL WEATHER SERVICE SPRINGFIELD MO
700 PM CDT WED JUL 26 2017

NOTE: "FAIR" INDICATES FEW OR NO CLOUDS BELOW 12,000 FEET WITH NO
       SIGNIFICANT WEATHER AND/OR OBSTRUCTIONS TO VISIBILITY.
       CURRENT SKY AND/OR WEATHER CONDITIONS ARE NOT AVAILABLE FOR
       CHILLICOTHE AND FARMINGTON.

MOZ001>031-035>038-043-044-053-054-270100-
...NORTHERN AND WESTERN MISSOURI...

CITY           SKY/WX    TMP DP  RH WIND       PRES   REMARKS
KANSAS CTY INT LGT RAIN  78  76  93 SW3       29.98R
6HR MIN TEMP:  78; 6HR MAX TEMP:  82; 6HR PCP:  0.04;

KANSAS C DTWN  LGT RAIN  81  78  91 CALM      29.95S
6HR MIN TEMP:  81; 6HR MAX TEMP:  83; 6HR PCP:  0.10;

LEE`S SUMMIT   LGT RAIN  80  78  94 NE6       29.97F
6HR MIN TEMP:  80; 6HR MAX TEMP:  83; 6HR PCP:  0.06;

ST JOSEPH      CLOUDY    81  77  88 W3        29.97R
6HR MIN TEMP:  79; 6HR MAX TEMP:  82; 6HR PCP: TRACE;

CHILLICOTHE      N/A     81  78  91 SE3       29.97F
6HR MIN TEMP:  79; 6HR MAX TEMP:  84; 6HR PCP:  0.18;

KIRKSVILLE     CLOUDY    80  73  79 CALM      29.99S
6HR MIN TEMP:  79; 6HR MAX TEMP:  85; 6HR PCP: TRACE;


$$
MOZ066>068-077>081-088>096-101>105-270100-
...SOUTHWEST MISSOURI...

CITY           SKY/WX    TMP DP  RH WIND       PRES   REMARKS
SPRINGFIELD    PTSUNNY   91  72  53 SW9       30.00S HX  98
6HR MIN TEMP:  91; 6HR MAX TEMP:  96;

JOPLIN         SUNNY     94  71  47 S15       29.97F HX 101
6HR MIN TEMP:  94; 6HR MAX TEMP: 100;

BRANSON        PTSUNNY   90  70  51 S9        30.04S HX  95

$$
MOZ032>034-039>042-045>050-055>058-069>072-270100-
...CENTRAL MISSOURI...

CITY           SKY/WX    TMP DP  RH WIND       PRES   REMARKS
COLUMBIA       CLOUDY    88  79  74 N3        29.97R HX 103
6HR MIN TEMP:  88; 6HR MAX TEMP:  92;

JEFFERSON CITY MOSUNNY   90  77  65 NW3       29.94S HX 103
6HR MIN TEMP:  90; 6HR MAX TEMP:  94;

ROLLA          MOSUNNY   88  75  65 S3        29.99S HX  97
6HR MIN TEMP:  88; 6HR MAX TEMP:  94;

SEDALIA        CLOUDY    85  82  91 NE3       29.98S HX 102
6HR MIN TEMP:  85; 6HR MAX TEMP:  89;

WARRENSBURG    PTSUNNY   81  73  78 NW3       29.97R
OSAGE BEACH    PTSUNNY   92  71  50 SW5       29.96F HX  98

$$
MOZ051-052-059>065-270100-
...EAST CENTRAL MISSOURI...

CITY           SKY/WX    TMP DP  RH WIND       PRES   REMARKS
ST LOUIS INTL  CLOUDY    93  75  55 E10       29.95F HX 104
6HR MIN TEMP:  93; 6HR MAX TEMP:  98;

SPIRIT OF STL  PTSUNNY   92  77  61 CALM      29.93S HX 105
6HR MIN TEMP:  92; 6HR MAX TEMP:  97;

ST CHARLES     PTSUNNY   89  78  70 E3        29.93F HX 103
6HR MIN TEMP:  89; 6HR MAX TEMP:  93;


$$
MOZ072>076-082>087-097>100-106>115-270100-
...SOUTH CENTRAL AND SOUTHEAST MISSOURI...

CITY           SKY/WX    TMP DP  RH WIND       PRES   REMARKS
CAPE GIRARDEAU CLOUDY    86  74  67 SW7       29.97S HX  94
6HR MIN TEMP:  85; 6HR MAX TEMP:  93;

FARMINGTON     CLOUDY    89  74  60 N10       29.99R HX  98
6HR MIN TEMP:  89; 6HR MAX TEMP:  97;

POPLAR BLUFF   CLOUDY    88  77  69 S7        29.97S HX 100
6HR MIN TEMP:  88; 6HR MAX TEMP:  93;

WEST PLAINS    CLOUDY    89  70  53 SW6       30.03F HX  94
6HR MIN TEMP:  88; 6HR MAX TEMP:  93;


$$




USA.gov is the U.S. government's official web portal to all federal, state and local government web resources and services.